{"data":{"norad_id":67253,"intl_designator":"2025-313F","name":"AIST-2T 1","alt_names":[],"object_type":"PAYLOAD","status":"ACTIVE","operator":null,"country":"CIS","launch_date":"2025-12-28","launch_site_code":"VOSTO","launch_vehicle":null,"mission":null,"orbit_class":"UNKNOWN","rcs_meters":null,"size_class":null,"mass_kg":null,"dimensions":null,"purposes":[],"wikipedia_slug":null,"has_3d_model":false,"image_url":null,"decayed_at":null,"tle_current":{"epoch":"2026-09-20T23:15:10.666080Z","epoch_age_seconds":62553,"freshness":"FRESH","line1":"1 67253U 25313F   26263.96887345  .00019376  00000+0  23481-3 0  9992","line2":"2 67253  97.0753 341.4144 0004826 228.5165 131.5680 15.60671742 41565","mean_motion":15.60671742,"eccentricity":0.0004826,"inclination_deg":97.0753,"raan_deg":341.4144,"arg_perigee_deg":228.5165,"mean_anomaly_deg":131.568,"bstar":0.00023481,"rev_number":4156,"period_min":92.26796136865,"perigee_km":382.45129091567,"apogee_km":388.9797613739,"semimajor_km":6763.8525261448,"source":"CELESTRAK","updated_at":"2026-09-21T09:00:16.512115Z"}}}